Aurora, NE

1:15 AM CDT on May 24, 2017 (GMT -0500)
Aurora Municipal

Weather History for KAUH - May, 2013

Change the Weather History Date:

Wednesday, May 1, 2013

  Actual Average Record
Temperature  
Mean Temperature 42 °F -  
Max Temperature 49 °F 66 °F 92 °F (1992)
Min Temperature 33 °F 43 °F 28 °F (2005)
Degree Days  
Heating Degree Days 24    
Moisture  
Dew Point 37 °F    
Average Humidity 96    
Maximum Humidity 100    
Minimum Humidity 70    
Precipitation  
Precipitation 0.89 in - - ()
Sea Level Pressure  
Sea Level Pressure 30.24 in    
Wind  
Wind Speed 24 mph (NNE)    
Max Wind Speed 32 mph    
Max Gust Speed 40 mph    
Visibility 5 miles    
Events Rain , Snow , Thunderstorm    
Averages and records for this station are not official NWS values.
T = Trace of Precipitation, MM = Missing Value Source: NWS Daily Summary

Daily Weather History Graph

Daily Weather History Graph

Search for Another Location

Airport or City:

Trip Planner

Search our weather history database for the weather conditions in past years. The results will help you decide how hot, cold, wet, or windy it might be!

Date:

Astronomy

May. 01, 2013 Rise Set
Actual Time 6:29 AM CDT 8:28 PM CDT
Civil Twilight 6:00 AM CDT 8:58 PM CDT
Nautical Twilight 5:23 AM CDT 9:35 PM CDT
Astronomical Twilight 4:44 AM CDT 10:14 PM CDT
Moon 1:39 AM CDT (5/1) 12:09 PM CDT (5/1)
Length of Visible Light 14h 58m
Length of Day
13h 58m
Waning Gibbous, 59% of the Moon is Illuminated
May 1
Waning Gibbous
May 2
Last Quarter
May 9
New
May 17
First Quarter
May 24
Full

Hourly Weather History & Observations

Time (CDT) Temp. Windchill Dew Point Humidity Pressure Visibility Wind Dir Wind Speed Gust Speed Precip Events Conditions
12:15 AM 50.9 °F - 41.5 °F 70% 29.95 in 10.0 mi NNE 27.6 mph 34.5 mph N/A   Overcast
12:35 AM 49.1 °F - 42.1 °F 77% 29.94 in 7.0 mi NNE 32.2 mph 38.0 mph 0.02 in Rain Light Rain
12:55 AM 49.1 °F - 42.8 °F 79% 29.99 in 10.0 mi NNE 21.9 mph 29.9 mph 0.02 in Rain , Thunderstorm Light Thunderstorms and Rain
1:15 AM 48.2 °F - 43.2 °F 83% 29.98 in 10.0 mi NNE 24.2 mph 27.6 mph 0.06 in Rain Light Rain
1:35 AM 47.8 °F - 41.9 °F 80% 29.98 in 10.0 mi NNE 29.9 mph 39.1 mph 0.06 in Thunderstorm Overcast
1:55 AM 47.3 °F - 41.4 °F 80% 29.98 in 10.0 mi NNE 28.8 mph 40.3 mph 0.06 in Thunderstorm Overcast
2:15 AM 46.8 °F - 42.6 °F 85% 30.04 in 10.0 mi North 24.2 mph 33.4 mph N/A Thunderstorm Overcast
2:35 AM 46.4 °F 37.7 °F 42.6 °F 87% 30.02 in 10.0 mi NNE 26.5 mph 35.7 mph N/A Rain Light Rain
2:55 AM 45.5 °F 36.0 °F 42.8 °F 90% 30.01 in 10.0 mi NNE 29.9 mph 38.0 mph N/A Rain Light Rain
3:15 AM 45.5 °F 36.0 °F 43.2 °F 92% 30.01 in 7.0 mi NNE 29.9 mph 35.7 mph N/A   Light Drizzle
3:35 AM 45.0 °F 36.2 °F 43.2 °F 93% 30.07 in 5.0 mi North 24.2 mph 35.7 mph N/A   Overcast
3:55 AM 44.8 °F 35.7 °F 43.9 °F 97% 30.04 in 4.0 mi NNE 25.3 mph 31.1 mph 0.02 in Rain Light Rain
4:15 AM 44.4 °F 35.3 °F 43.5 °F 97% 30.06 in 5.0 mi NNE 25.3 mph 33.4 mph 0.01 in Rain , Thunderstorm Light Thunderstorms and Rain
4:35 AM 44.1 °F 36.5 °F 43.9 °F 99% 30.06 in 4.0 mi NNE 17.3 mph 27.6 mph 0.03 in Rain Light Rain
4:55 AM 43.7 °F 34.1 °F 43.7 °F 100% 30.05 in 5.0 mi NE 26.5 mph 32.2 mph 0.06 in Rain Light Rain
5:15 AM 43.2 °F 33.8 °F 43.2 °F 100% 30.07 in 5.0 mi NNE 24.2 mph 27.6 mph 0.03 in Rain Light Rain
5:35 AM 42.4 °F 31.8 °F 42.4 °F 100% 30.09 in 10.0 mi NNE 29.9 mph 34.5 mph 0.04 in   Overcast
5:55 AM 41.4 °F 30.9 °F 41.4 °F 100% 30.10 in 10.0 mi NNE 26.5 mph 34.5 mph 0.04 in Rain , Thunderstorm Light Thunderstorms and Rain
6:15 AM 41.2 °F 31.1 °F 41.2 °F 100% 30.12 in 2.0 mi North 24.2 mph 32.2 mph 0.03 in Rain Light Rain
6:35 AM 40.6 °F 29.2 °F 40.6 °F 100% 30.13 in 2.5 mi NNE 31.1 mph 35.7 mph 0.07 in Rain Light Rain
6:55 AM 39.7 °F 30.3 °F 39.7 °F 100% 30.18 in 3.0 mi North 19.6 mph 33.4 mph 0.09 in Rain Light Rain
7:15 AM 36.7 °F 26.3 °F 36.7 °F 100% 30.17 in 3.0 mi North 19.6 mph - 0.07 in   Overcast
7:35 AM 35.6 °F 24.8 °F 35.6 °F 100% 30.18 in 5.0 mi North 19.6 mph 27.6 mph 0.10 in Rain Light Rain
7:55 AM 34.9 °F 23.3 °F 34.9 °F 100% 30.18 in 2.0 mi North 21.9 mph 28.8 mph 0.13 in Snow , Thunderstorm Light Thunderstorms and Snow
8:15 AM 34.7 °F 23.4 °F 34.7 °F 100% 30.20 in 5.0 mi North 20.7 mph - 0.04 in Rain , Thunderstorm Light Thunderstorms and Rain
8:35 AM 34.7 °F 24.0 °F 34.7 °F 100% 30.20 in 4.0 mi North 18.4 mph - 0.05 in Rain Light Rain
9:15 AM 34.9 °F 22.7 °F 34.9 °F 100% 30.21 in 10.0 mi NNE 24.2 mph 31.1 mph 0.03 in Rain , Thunderstorm Light Thunderstorms and Rain
9:35 AM 34.9 °F 23.3 °F 34.9 °F 100% 30.20 in 7.0 mi NNE 21.9 mph 26.5 mph 0.06 in Rain Light Rain
9:55 AM 35.1 °F 23.5 °F 35.1 °F 100% 30.22 in 4.0 mi North 21.9 mph 28.8 mph 0.09 in Rain Light Rain
10:15 AM 35.1 °F 23.8 °F 35.1 °F 100% 30.22 in 3.0 mi NNE 20.7 mph 28.8 mph 0.03 in Rain Light Rain
10:35 AM 35.2 °F 23.8 °F 35.2 °F 100% 30.24 in 4.0 mi NNE 21.9 mph 28.8 mph 0.06 in   Light Drizzle
11:15 AM 35.6 °F 24.0 °F 35.6 °F 100% 30.25 in 1.8 mi NNE 23.0 mph 28.8 mph 0.01 in Rain Light Rain
11:35 AM 35.6 °F 24.0 °F 35.6 °F 100% 30.25 in 2.0 mi NNE 23.0 mph 31.1 mph 0.01 in Rain Light Rain
11:55 AM 35.8 °F 23.4 °F 35.8 °F 100% 30.27 in 3.0 mi NNE 26.5 mph 32.2 mph 0.01 in   Overcast
12:15 PM 36.0 °F 23.0 °F 36.0 °F 100% 30.27 in 2.5 mi NNE 29.9 mph 34.5 mph 0.01 in Rain Light Rain
12:35 PM 35.4 °F 23.5 °F 35.4 °F 100% 30.28 in 1.5 mi North 24.2 mph 31.1 mph 0.01 in Rain Light Rain
12:55 PM 33.8 °F 20.5 °F 33.8 °F 100% 30.30 in 1.8 mi North 27.6 mph 35.7 mph 0.03 in Rain Light Rain
1:15 PM 34.2 °F 21.5 °F 34.2 °F 100% 30.30 in 2.5 mi North 25.3 mph 35.7 mph N/A Rain Light Rain
1:35 PM 34.3 °F 22.3 °F 34.3 °F 100% 30.29 in 2.5 mi NNE 23.0 mph 29.9 mph 0.01 in Rain Light Rain
1:55 PM 33.8 °F 22.2 °F 33.8 °F 100% 30.30 in 2.0 mi North 20.7 mph 26.5 mph 0.03 in Snow Light Snow
2:15 PM 33.8 °F 21.3 °F 33.8 °F 100% 30.31 in 3.0 mi North 24.2 mph 32.2 mph 0.01 in Snow Light Snow
2:35 PM 33.8 °F 22.5 °F 33.8 °F 100% 30.32 in 3.0 mi North 19.6 mph - 0.01 in Rain Light Rain
3:15 PM 34.0 °F 21.3 °F 34.0 °F 100% 30.33 in 2.5 mi North 25.3 mph 29.9 mph 0.01 in Rain Light Rain
3:35 PM 34.0 °F 22.4 °F 34.0 °F 100% 30.34 in 2.0 mi North 20.7 mph 27.6 mph 0.03 in Snow , Thunderstorm Light Thunderstorms and Snow
3:55 PM 34.0 °F 21.8 °F 34.0 °F 100% 30.35 in 2.0 mi North 23.0 mph 28.8 mph 0.05 in Snow Light Snow
4:15 PM 34.2 °F 23.0 °F 34.2 °F 100% 30.36 in 2.0 mi North 19.6 mph 23.0 mph 0.01 in Snow Light Snow
4:35 PM 34.2 °F 23.0 °F 34.2 °F 100% 30.35 in 1.5 mi North 19.6 mph 24.2 mph 0.02 in Snow Light Snow
4:55 PM 34.2 °F 23.3 °F 34.2 °F 100% 30.36 in 1.5 mi North 18.4 mph 28.8 mph 0.02 in Snow Light Snow
5:15 PM 34.2 °F 22.3 °F 34.2 °F 100% 30.36 in 1.8 mi North 21.9 mph 26.5 mph 0.01 in Snow Light Snow
5:35 PM 34.0 °F 22.4 °F 34.0 °F 100% 30.36 in 1.8 mi North 20.7 mph 28.8 mph 0.02 in Snow Light Snow
5:55 PM 34.0 °F 22.4 °F 34.0 °F 100% 30.37 in 1.2 mi North 20.7 mph 29.9 mph 0.02 in Snow Light Snow
6:15 PM 34.0 °F 23.0 °F 34.0 °F 100% 30.38 in 1.2 mi North 18.4 mph 31.1 mph N/A   Overcast
6:35 PM 34.0 °F 22.1 °F 34.0 °F 100% 30.39 in 1.5 mi North 21.9 mph 27.6 mph N/A Snow Light Snow
6:55 PM 34.0 °F 21.5 °F 34.0 °F 100% 30.38 in 1.2 mi North 24.2 mph 28.8 mph N/A Snow Light Snow
7:15 PM 34.2 °F 21.0 °F 34.2 °F 100% 30.38 in 1.2 mi North 27.6 mph 35.7 mph 0.01 in Snow Light Snow
7:35 PM 34.0 °F 23.4 °F 34.0 °F 100% 30.40 in 1.0 mi North 17.3 mph - 0.02 in Snow Light Snow
7:55 PM 34.0 °F 22.7 °F 34.0 °F 100% 30.39 in 1.2 mi North 19.6 mph 25.3 mph 0.02 in Snow Light Snow
8:35 PM 34.2 °F 21.8 °F 34.2 °F 100% 30.37 in 5.0 mi North 24.2 mph 31.1 mph N/A Rain Rain
8:55 PM 34.5 °F 22.5 °F 34.5 °F 100% 30.40 in 7.0 mi North 23.0 mph 27.6 mph 0.02 in   Light Drizzle
9:35 PM 34.9 °F 23.0 °F 34.7 °F 99% 30.41 in 5.0 mi North 23.0 mph 27.6 mph 0.02 in Snow Light Snow
9:55 PM 35.2 °F 24.7 °F 33.8 °F 94% 30.42 in 10.0 mi North 18.4 mph - 0.04 in Snow Light Snow
10:15 PM 35.6 °F 27.1 °F 33.4 °F 92% 30.44 in 10.0 mi North 12.7 mph - 0.01 in Snow Light Snow
10:35 PM 35.1 °F 27.9 °F 33.8 °F 95% 30.46 in 7.0 mi North 9.2 mph - 0.01 in Snow Light Snow
10:55 PM 34.9 °F 30.8 °F 34.2 °F 97% 30.46 in 10.0 mi North 4.6 mph - 0.01 in Snow Light Snow
11:15 PM 35.1 °F 30.1 °F 34.0 °F 96% 30.47 in 10.0 mi North 5.8 mph - N/A   Overcast
11:35 PM 35.8 °F 28.3 °F 33.3 °F 91% 30.47 in 10.0 mi North 10.4 mph - N/A   Overcast
11:55 PM 36.0 °F 27.5 °F 33.3 °F 90% 30.46 in 10.0 mi North 12.7 mph - 0.01 in   Overcast